Park Rapids, MN

7:33 PM CDT on October 20, 2017 (GMT -0500)
Park Rapids Municipal

Weather History for KPKD - May, 2009

Change the Weather History Date:

Thursday, May 28, 2009

  Actual Average Record
Temperature  
Mean Temperature 55 °F -  
Max Temperature 75 °F 73 °F 96 °F (2006)
Min Temperature 35 °F 48 °F 31 °F (1965)
Degree Days  
Heating Degree Days 10    
Growing Degree Days 5 (Base 50)    
Moisture  
Dew Point 38 °F    
Average Humidity 69    
Maximum Humidity 100    
Minimum Humidity 21    
Precipitation  
Precipitation 0.00 in - - ()
Sea Level Pressure  
Sea Level Pressure 29.87 in    
Wind  
Wind Speed 4 mph (NNW)    
Max Wind Speed 21 mph    
Max Gust Speed 30 mph    
Visibility 8 miles    
Events      
Averages and records for this station are not official NWS values.
T = Trace of Precipitation, MM = Missing Value Source: NWS Daily Summary

Daily Weather History Graph

Daily Weather History Graph

Search for Another Location

Airport or City:

Trip Planner

Search our weather history database for the weather conditions in past years. The results will help you decide how hot, cold, wet, or windy it might be!

Date:

Astronomy

May. 28, 2009 Rise Set
Actual Time 5:32 AM CDT 9:03 PM CDT
Civil Twilight 4:54 AM CDT 9:41 PM CDT
Nautical Twilight 4:03 AM CDT 10:32 PM CDT
Astronomical Twilight 2:57 AM CDT 11:39 PM CDT
Moon 9:56 AM CDT (5/28) 12:34 AM CDT (5/28)
Length of Visible Light 16h 47m
Length of Day
15h 31m
Waxing Crescent, 24% of the Moon is Illuminated
May 28
Waxing Crescent
May 30
First Quarter
Jun 7
Full
Jun 15
Last Quarter
Jun 22
New

Hourly Weather History & Observations

Time (CDT) Temp. Windchill Dew Point Humidity Pressure Visibility Wind Dir Wind Speed Gust Speed Precip Events Conditions
12:53 AM 43.0 °F - 39.9 °F 89% 29.89 in 10.0 mi Calm Calm - N/A   Clear
1:51 AM 37.4 °F - 37.4 °F 100% 29.87 in 1.8 mi Calm Calm - N/A   Clear
1:53 AM 37.9 °F - 37.9 °F 100% 29.90 in 1.2 mi Calm Calm - N/A   Clear
2:13 AM 39.2 °F - 37.4 °F 93% 29.86 in 3.0 mi Calm Calm - N/A   Clear
2:53 AM 39.9 °F 37.8 °F 39.0 °F 97% 29.88 in 10.0 mi South 3.5 mph - N/A   Clear
3:53 AM 39.9 °F 37.8 °F 37.9 °F 93% 29.87 in 9.0 mi South 3.5 mph - N/A   Clear
4:14 AM 39.2 °F - 39.2 °F 100% 29.84 in 2.5 mi Calm Calm - N/A   Partly Cloudy
4:30 AM 37.4 °F - 37.4 °F 100% 29.84 in 7.0 mi Calm Calm - N/A   Partly Cloudy
4:53 AM 37.9 °F - 36.0 °F 93% 29.87 in 10.0 mi Calm Calm - N/A   Clear
5:07 AM 35.6 °F - 35.6 °F 100% 29.84 in 2.5 mi Calm Calm - N/A   Scattered Clouds
5:15 AM 35.6 °F - 35.6 °F 100% 29.84 in 1.8 mi Calm Calm - N/A   Mostly Cloudy
5:18 AM 37.4 °F - 35.6 °F 93% 29.84 in 3.0 mi Calm Calm - N/A   Mostly Cloudy
5:46 AM 37.4 °F - 35.6 °F 93% 29.83 in 10.0 mi Calm Calm - N/A   Partly Cloudy
5:53 AM 37.4 °F - 35.6 °F 93% 29.83 in 10.0 mi Calm Calm - N/A   Partly Cloudy
6:53 AM 42.1 °F - 39.9 °F 92% 29.86 in 10.0 mi Calm Calm - N/A   Clear
7:53 AM 50.0 °F - 46.9 °F 89% 29.86 in 10.0 mi West 6.9 mph - N/A   Clear
8:53 AM 57.0 °F - 46.9 °F 69% 29.85 in 10.0 mi West 9.2 mph - N/A   Clear
9:53 AM 63.0 °F - 48.0 °F 58% 29.85 in 10.0 mi WNW 13.8 mph 19.6 mph N/A   Clear
10:53 AM 64.0 °F - 48.9 °F 58% 29.85 in 10.0 mi NW 10.4 mph - N/A   Clear
11:53 AM 71.1 °F - 46.9 °F 42% 29.83 in 10.0 mi NW 10.4 mph - N/A   Clear
12:53 PM 72.0 °F - 35.1 °F 26% 29.83 in 10.0 mi NNE 18.4 mph - N/A   Clear
1:53 PM 75.0 °F - 32.0 °F 21% 29.83 in 10.0 mi NNW 12.7 mph 24.2 mph N/A   Clear
2:53 PM 75.0 °F - 32.0 °F 21% 29.83 in 10.0 mi North 19.6 mph 29.9 mph N/A   Clear
3:53 PM 75.0 °F - 37.9 °F 26% 29.83 in 10.0 mi North 18.4 mph 27.6 mph N/A   Clear
4:53 PM 73.0 °F - 30.9 °F 21% 29.85 in 10.0 mi North 19.6 mph 27.6 mph N/A   Clear
5:53 PM 71.1 °F - 36.0 °F 28% 29.87 in 10.0 mi North 20.7 mph 27.6 mph N/A   Clear
6:53 PM 66.0 °F - 39.9 °F 38% 29.90 in 10.0 mi North 15.0 mph 24.2 mph N/A   Scattered Clouds
7:53 PM 63.0 °F - 37.0 °F 38% 29.89 in 10.0 mi North 10.4 mph - N/A   Scattered Clouds
8:53 PM 60.1 °F - 39.0 °F 46% 29.90 in 10.0 mi North 8.1 mph - N/A   Scattered Clouds
9:53 PM 57.9 °F - 34.0 °F 41% 29.94 in 10.0 mi North 10.4 mph - N/A   Mostly Cloudy
10:53 PM 51.1 °F - 37.9 °F 61% 29.97 in 10.0 mi NNW 6.9 mph - N/A   Clear
11:53 PM 46.0 °F 42.5 °F 39.0 °F 76% 29.97 in 10.0 mi NNW 6.9 mph - N/A   Clear